Flag for U.S.A. Weather past 2 weeks in Rapid City, South Dakota, U.S.A.

Now
71 °F

Sunny.


Feels Like: 77 °F
Forecast: 58 / 76 °F
Wind: 12 mph from East

Location: Ellsworth Air Force Base

Current Time: Jul 28, 2014 at 10:06:12 PM

Latest Report: Jul 28, 2014 at 8:58 PM


Visibility: 10 mi

Pressure: 30.20 "Hg

Humidity: 53%

Dew point: 52 °F

Location of Rapid CityLocation

Historic Weather in Rapid City — Graph

°F

Rapid City temperature yesterday

Maximum temperature yesterday: 82 °F (at 4:58 PM)
Minimum temperature yesterday: 54 °F (at 5:58 AM)
Average temperature yesterday: 69 °F

Past Weeks' High & Low Weather Summary

 TemperatureHumidityPressure
High97 °F (Jul 21, 3:58 PM)94% (Jul 17, 4:58 AM)30.32 "Hg (Jul 17, 4:58 AM)
Low47 °F (Jul 15, 5:58 AM)18% (Jul 21, 3:58 PM)29.57 "Hg (Jul 24, 8:58 PM)
Average72 °F58%29.98 "Hg
* Reported Jul 13 8:58 PM — Jul 28 8:58 PM, Rapid City, Weather by CustomWeather, © 2014

Note: Actual official high and low records may vary slightly from our data, if they occured in-between our weather recording intervals... More about our weather records

Advertising

Rapid City weather history for previous 24 hours

 ConditionsComfort  
Time TempWeatherWind HumidityBarometerVisibility
8:58 PM
Jul 28
71 °FSunny.12 mph53%30.20 "Hg10 mi
7:58 PM74 °FSunny.12 mph48%30.19 "Hg10 mi
6:58 PM79 °FScattered clouds.7 mph40%30.18 "Hg10 mi
5:58 PM80 °FSunny.7 mph40%30.19 "Hg10 mi
4:58 PM81 °FSunny.9 mph39%30.19 "Hg10 mi
3:58 PM81 °FSunny.7 mph41%30.22 "Hg10 mi
2:58 PM80 °FPassing clouds.7 mph43%30.22 "Hg10 mi
1:58 PM79 °FPassing clouds.8 mph46%30.24 "Hg10 mi
12:58 PM77 °FSunny.13 mph49%30.25 "Hg10 mi
11:58 AM76 °FSunny.10 mph52%30.26 "Hg10 mi
10:58 AM73 °FSunny.14 mph56%30.28 "Hg10 mi
9:58 AM71 °FSunny.10 mph59%30.28 "Hg10 mi
8:58 AM68 °FSunny.10 mph63%30.29 "Hg10 mi
7:58 AM64 °FSunny.8 mph71%30.29 "Hg10 mi
6:58 AM59 °FPassing clouds.6 mph83%30.30 "Hg10 mi
5:58 AM55 °FClear.5 mph88%30.30 "Hg10 mi
4:58 AM55 °FClear.6 mph88%30.30 "Hg10 mi
3:58 AM56 °FClear.6 mph86%30.30 "Hg10 mi
2:58 AM57 °FClear.6 mph83%30.31 "Hg10 mi
1:58 AM59 °FClear.3 mph78%30.31 "Hg10 mi
12:58 AM62 °FClear.2 mph73%30.31 "Hg10 mi
11:58 PM
Jul 27
62 °FClear.No wind71%30.29 "Hg10 mi
10:58 PM61 °FClear.5 mph76%30.30 "Hg10 mi
Weather by CustomWeather, © 2014

See weather overviewHow to use our weather pages